BAW3VU EGKK-WSSS

Flight info

Callsign BAW3VU
Flight time N/A
Altitude 39000
Route MIMFO1M MIMFO Y312 DVR L9 KONAN/N0490F330 UL607 KOK DCT REMBA DCT MATUG DCT AMASI DCT BOMBI DCT TENLO DCT DEXIT/N0488F350 DCT PESAT DCT TEGRI DCT LUGEB DCT UDROS DCT CRM UM11 TBN UR317 REBLO M11 LUSAL N199 RASAM/N0497F370 N199 BAKUV N701 LARGI B701 KRS A240 INRAK B449 DOLOS B475 RUBAD A846 RANAH L750 ZB G202 RK P628 IBANI L510 GOGVE/N0491F390 L510 GIVAL P628 VPL Y503 RINBA Y507 MAKNA Y511 TOPOR A464 ARAMA DCT TEBUN TEBUN1A
Aircraft A388/J-V/N

Departure

Time 2026-04-13 17:17
Airport London Gatwick Airport (EGKK)

Arrival

Time N/A
Airport Singapore Changi Airport (WSSS)
Time Latitude Longitude Altitude Speed Heading
2026-04-13 16:33 51.15992 -0.18018 217 ft 0 kts 77°
2026-04-13 17:04 51.15991 -0.18025 210 ft 2 kts 75°
2026-04-13 17:04 51.15983 -0.18052 214 ft 3 kts 61°
2026-04-13 17:04 51.15977 -0.18071 220 ft 2 kts 69°
2026-04-13 17:04 51.15974 -0.18096 219 ft 3 kts 115°
2026-04-13 17:05 51.15985 -0.18119 223 ft 3 kts 147°
2026-04-13 17:05 51.16003 -0.18134 223 ft 3 kts 159°
2026-04-13 17:05 51.16022 -0.18144 220 ft 2 kts 167°
2026-04-13 17:05 51.16031 -0.18147 216 ft 1 kts 168°
2026-04-13 17:06 51.16032 -0.18148 215 ft 0 kts 168°
2026-04-13 17:10 51.16029 -0.18147 210 ft 2 kts 168°
2026-04-13 17:11 51.15972 -0.18125 215 ft 13 kts 166°
2026-04-13 17:11 51.15885 -0.18091 219 ft 13 kts 167°
2026-04-13 17:11 51.15803 -0.18073 218 ft 11 kts 194°
2026-04-13 17:11 51.15741 -0.18130 221 ft 10 kts 214°
2026-04-13 17:12 51.15682 -0.18192 217 ft 10 kts 213°
2026-04-13 17:12 51.15624 -0.18229 218 ft 9 kts 181°
2026-04-13 17:12 51.15558 -0.18215 212 ft 10 kts 168°
2026-04-13 17:12 51.15490 -0.18192 216 ft 10 kts 167°
2026-04-13 17:13 51.15396 -0.18153 218 ft 18 kts 166°
2026-04-13 17:13 51.15280 -0.18113 219 ft 16 kts 168°
2026-04-13 17:13 51.15226 -0.18019 217 ft 11 kts 80°
2026-04-13 17:13 51.15256 -0.17809 212 ft 24 kts 77°
2026-04-13 17:14 51.15288 -0.17554 220 ft 23 kts 79°
2026-04-13 17:14 51.15265 -0.17338 221 ft 18 kts 124°
2026-04-13 17:14 51.15260 -0.17152 219 ft 17 kts 80°
2026-04-13 17:14 51.15289 -0.16925 219 ft 21 kts 86°
2026-04-13 17:15 51.15285 -0.16878 217 ft 0 kts 118°
2026-04-13 17:15 51.15282 -0.16869 219 ft 7 kts 121°
2026-04-13 17:15 51.15201 -0.16801 218 ft 17 kts 168°
2026-04-13 17:16 51.15117 -0.16871 218 ft 14 kts 251°
2026-04-13 17:16 51.15049 -0.17332 215 ft 75 kts 257°
2026-04-13 17:16 51.14896 -0.18429 220 ft 125 kts 257°
2026-04-13 17:16 51.14684 -0.19953 305 ft 153 kts 255°
2026-04-13 17:17 51.14445 -0.21620 696 ft 156 kts 255°
2026-04-13 17:17 51.14234 -0.23281 1193 ft 149 kts 260°
2026-04-13 17:17 51.14253 -0.24924 1701 ft 148 kts 266°
2026-04-13 17:17 51.14278 -0.26541 2147 ft 145 kts 270°
2026-04-13 17:18 51.14539 -0.28128 2416 ft 160 kts 293°
2026-04-13 17:18 51.15458 -0.29319 2523 ft 186 kts 335°
2026-04-13 17:18 51.16800 -0.29351 2604 ft 204 kts 14°
2026-04-13 17:18 51.18068 -0.28342 2672 ft 211 kts 34°
2026-04-13 17:19 51.19138 -0.26655 2756 ft 216 kts 54°
2026-04-13 17:19 51.19851 -0.24541 2802 ft 222 kts 70°
2026-04-13 17:19 51.20320 -0.22157 2845 ft 230 kts 78°
2026-04-13 17:19 51.20670 -0.19600 2917 ft 238 kts 81°
2026-04-13 17:20 51.20995 -0.16912 3067 ft 255 kts 81°
2026-04-13 17:20 51.21340 -0.14043 3272 ft 273 kts 81°
2026-04-13 17:20 51.21714 -0.11008 3709 ft 280 kts 80°
2026-04-13 17:20 51.22095 -0.07961 4362 ft 282 kts 80°
2026-04-13 17:21 51.22484 -0.04876 4955 ft 285 kts 80°
2026-04-13 17:21 51.22874 -0.01775 5597 ft 285 kts 80°
2026-04-13 17:21 51.23264 0.01341 6121 ft 289 kts 80°
2026-04-13 17:21 51.23659 0.04508 6687 ft 291 kts 80°
2026-04-13 17:22 51.24053 0.07678 7266 ft 293 kts 80°
2026-04-13 17:22 51.24452 0.10890 7823 ft 296 kts 81°
2026-04-13 17:22 51.24853 0.14126 8382 ft 298 kts 81°
2026-04-13 17:22 51.25251 0.17351 8908 ft 301 kts 82°
2026-04-13 17:23 51.25432 0.20674 9423 ft 302 kts 94°
2026-04-13 17:23 51.25214 0.24008 9955 ft 303 kts 101°
2026-04-13 17:23 51.24933 0.27395 10226 ft 315 kts 100°
2026-04-13 17:23 51.24661 0.30945 10369 ft 329 kts 99°
2026-04-13 17:24 51.24406 0.34342 10498 ft 342 kts 99°
2026-04-13 17:24 51.24116 0.38169 10747 ft 352 kts 99°
2026-04-13 17:24 51.23819 0.42074 11193 ft 356 kts 99°
2026-04-13 17:24 51.23520 0.46003 11674 ft 358 kts 99°
2026-04-13 17:25 51.23220 0.49956 12141 ft 360 kts 100°
2026-04-13 17:25 51.22914 0.53925 12616 ft 362 kts 100°
2026-04-13 17:25 51.22601 0.57927 13083 ft 365 kts 100°
2026-04-13 17:25 51.22286 0.61955 13562 ft 367 kts 100°
2026-04-13 17:26 51.21968 0.66015 14020 ft 370 kts 101°
2026-04-13 17:26 51.21646 0.70101 14421 ft 373 kts 100°
2026-04-13 17:26 51.21329 0.74108 14812 ft 376 kts 100°
2026-04-13 17:26 51.20999 0.78260 15217 ft 379 kts 100°
2026-04-13 17:27 51.20327 0.86651 16037 ft 384 kts 100°
2026-04-13 17:27 51.19986 0.90891 16425 ft 387 kts 100°
2026-04-13 17:27 51.19641 0.95158 16807 ft 390 kts 100°
2026-04-13 17:28 51.19293 0.99461 17234 ft 392 kts 101°
2026-04-13 17:28 51.18940 1.03771 17619 ft 394 kts 101°
2026-04-13 17:28 51.18583 1.08118 17984 ft 397 kts 101°
2026-04-13 17:28 51.18222 1.12495 18349 ft 399 kts 101°
2026-04-13 17:29 51.17856 1.16900 18640 ft 403 kts 101°
2026-04-13 17:29 51.17487 1.21329 18951 ft 405 kts 101°
2026-04-13 17:29 51.17113 1.25800 19235 ft 408 kts 101°
2026-04-13 17:29 51.16736 1.30300 19521 ft 411 kts 101°
2026-04-13 17:30 51.16354 1.34824 19807 ft 414 kts 101°
2026-04-13 17:30 51.16007 1.39277 20076 ft 417 kts 98°
2026-04-13 17:30 51.15786 1.43827 20348 ft 420 kts 96°
2026-04-13 17:30 51.15602 1.48529 20683 ft 421 kts 96°
2026-04-13 17:31 51.15410 1.53203 20951 ft 424 kts 97°
2026-04-13 17:31 51.15201 1.57905 21231 ft 427 kts 97°
2026-04-13 17:31 51.14977 1.62630 21508 ft 429 kts 97°
2026-04-13 17:31 51.14744 1.67383 21782 ft 432 kts 97°
2026-04-13 17:32 51.14506 1.72157 22066 ft 434 kts 97°
2026-04-13 17:32 51.14264 1.76964 22337 ft 437 kts 97°
2026-04-13 17:32 51.14022 1.81729 22599 ft 439 kts 97°
2026-04-13 17:32 51.13771 1.86651 22874 ft 442 kts 97°
2026-04-13 17:33 51.13520 1.91530 23156 ft 443 kts 98°
2026-04-13 17:33 51.13271 1.96391 23651 ft 439 kts 98°
2026-04-13 17:33 51.13016 2.01251 23831 ft 443 kts 98°
2026-04-13 17:33 51.12756 2.06141 24083 ft 444 kts 98°
2026-04-13 17:34 51.12228 2.15969 24591 ft 447 kts 98°
2026-04-13 17:34 51.11961 2.20897 24822 ft 448 kts 99°
2026-04-13 17:34 51.11691 2.25852 25073 ft 450 kts 99°
2026-04-13 17:35 51.11418 2.30816 25341 ft 451 kts 99°
2026-04-13 17:35 51.11141 2.35805 25606 ft 453 kts 99°
2026-04-13 17:35 51.10959 2.39101 25785 ft 452 kts 101°
2026-04-13 17:35 51.10592 2.45736 26346 ft 450 kts 102°
2026-04-13 17:36 51.10404 2.49030 26482 ft 452 kts 102°
2026-04-13 17:36 51.10116 2.54016 26778 ft 454 kts 102°
2026-04-13 17:36 51.09826 2.59035 27055 ft 456 kts 102°
2026-04-13 17:36 51.09488 2.64049 27337 ft 455 kts 106°
2026-04-13 17:37 51.08837 2.68813 27601 ft 450 kts 113°
2026-04-13 17:37 51.07948 2.73580 27901 ft 451 kts 114°
2026-04-13 17:37 51.07071 2.78379 28195 ft 453 kts 113°
2026-04-13 17:37 51.06198 2.83205 28486 ft 455 kts 113°
2026-04-13 17:38 51.05329 2.88032 28969 ft 452 kts 115°
2026-04-13 17:38 51.03547 2.97780 29020 ft 468 kts 115°
2026-04-13 17:39 51.01701 3.07821 29027 ft 476 kts 115°
2026-04-13 17:39 51.00772 3.12875 29354 ft 477 kts 115°
2026-04-13 17:39 50.99839 3.17940 29682 ft 479 kts 115°
2026-04-13 17:39 50.98898 3.23020 29983 ft 481 kts 115°
2026-04-13 17:40 50.97950 3.28123 30241 ft 483 kts 115°
2026-04-13 17:40 50.96999 3.33232 30538 ft 482 kts 115°
2026-04-13 17:40 50.96049 3.38329 30898 ft 483 kts 115°
2026-04-13 17:40 50.95088 3.43453 31075 ft 486 kts 115°
2026-04-13 17:41 50.94118 3.48608 31333 ft 489 kts 115°
2026-04-13 17:41 50.93153 3.53726 31584 ft 491 kts 115°
2026-04-13 17:41 50.92171 3.58921 31802 ft 494 kts 115°
2026-04-13 17:41 50.91189 3.64102 32040 ft 496 kts 115°
2026-04-13 17:42 50.90193 3.69348 32274 ft 498 kts 115°
2026-04-13 17:42 50.89193 3.74600 32585 ft 499 kts 115°
2026-04-13 17:42 50.88190 3.79863 32999 ft 496 kts 115°
2026-04-13 17:42 50.87196 3.85078 33512 ft 493 kts 115°
2026-04-13 17:43 50.86199 3.90270 33865 ft 493 kts 115°
2026-04-13 17:43 50.85200 3.95452 34182 ft 492 kts 115°
2026-04-13 17:43 50.84196 4.00640 34419 ft 494 kts 114°
2026-04-13 17:43 50.83189 4.05837 34653 ft 495 kts 114°
2026-04-13 17:44 50.82179 4.11031 34883 ft 495 kts 114°
2026-04-13 17:44 50.81164 4.16243 35117 ft 496 kts 114°
2026-04-13 17:44 50.80146 4.21456 35332 ft 497 kts 114°
2026-04-13 17:44 50.79123 4.26681 35519 ft 498 kts 113°
2026-04-13 17:45 50.78095 4.31920 35743 ft 499 kts 113°
2026-04-13 17:45 50.77067 4.37144 35970 ft 500 kts 112°
2026-04-13 17:45 50.76030 4.42399 36174 ft 500 kts 112°
2026-04-13 17:45 50.74991 4.47649 36378 ft 501 kts 112°
2026-04-13 17:46 50.73949 4.52903 36579 ft 502 kts 112°
2026-04-13 17:46 50.72923 4.58059 36782 ft 503 kts 112°
2026-04-13 17:46 50.71871 4.63331 36979 ft 504 kts 112°
2026-04-13 17:46 50.70817 4.68598 37172 ft 503 kts 111°
2026-04-13 17:47 50.69769 4.73820 37569 ft 500 kts 110°
2026-04-13 17:47 50.68715 4.79061 37691 ft 502 kts 110°
2026-04-13 17:47 50.67656 4.84314 37846 ft 503 kts 110°
2026-04-13 17:47 50.66601 4.89543 38022 ft 504 kts 110°
2026-04-13 17:48 50.65546 4.94899 38176 ft 506 kts 108°
2026-04-13 17:48 50.64656 5.00276 38338 ft 507 kts 106°
2026-04-13 17:48 50.63824 5.05676 38505 ft 508 kts 105°
2026-04-13 17:48 50.62983 5.11097 38628 ft 509 kts 106°
2026-04-13 17:49 50.62124 5.16502 38814 ft 508 kts 106°
2026-04-13 17:49 50.61254 5.21870 39031 ft 506 kts 107°
2026-04-13 17:49 50.60371 5.27244 39097 ft 508 kts 107°
2026-04-13 17:50 50.58580 5.38053 39297 ft 510 kts 107°
2026-04-13 17:50 50.57685 5.43428 39399 ft 511 kts 107°
2026-04-13 17:50 50.56784 5.48826 39496 ft 512 kts 107°
2026-04-13 17:51 50.54966 5.59666 39696 ft 513 kts 107°
2026-04-13 17:51 50.54054 5.65083 39871 ft 512 kts 107°
2026-04-13 17:51 50.53140 5.70490 39931 ft 514 kts 107°
2026-04-13 17:52 50.51290 5.81377 39986 ft 518 kts 107°
2026-04-13 17:52 50.49436 5.92230 40004 ft 513 kts 107°
2026-04-13 17:53 50.47886 6.01246 39973 ft 515 kts 107°
2026-04-13 17:53 50.45696 6.13912 39977 ft 514 kts 107°
2026-04-13 17:54 50.43813 6.24729 39977 ft 514 kts 107°
2026-04-13 17:54 50.41918 6.35550 39969 ft 514 kts 107°
2026-04-13 17:55 50.40244 6.46446 39964 ft 515 kts 103°
2026-04-13 17:55 50.38813 6.57436 39967 ft 514 kts 104°
2026-04-13 17:56 50.37322 6.68386 39964 ft 514 kts 104°
2026-04-13 17:56 50.35793 6.79303 39957 ft 514 kts 104°
2026-04-13 17:57 50.34259 6.90146 39948 ft 517 kts 104°
2026-04-13 17:57 50.32688 7.01176 39942 ft 517 kts 105°
2026-04-13 17:58 50.31118 7.12130 39941 ft 516 kts 105°
2026-04-13 17:58 50.29537 7.23077 39942 ft 516 kts 105°
2026-04-13 17:59 50.27945 7.34019 39945 ft 516 kts 105°
2026-04-13 17:59 50.26345 7.44941 39946 ft 515 kts 105°
2026-04-13 18:00 50.24748 7.55764 39959 ft 516 kts 105°
2026-04-13 18:00 50.23128 7.66682 39961 ft 516 kts 105°
2026-04-13 18:01 50.21502 7.77582 39963 ft 515 kts 105°
2026-04-13 18:01 50.19881 7.88384 39959 ft 514 kts 106°
2026-04-13 18:02 50.18206 7.99460 39953 ft 514 kts 106°
2026-04-13 18:02 50.16555 8.10303 39951 ft 514 kts 106°
2026-04-13 18:03 50.14893 8.21140 39945 ft 514 kts 106°
2026-04-13 18:03 50.13224 8.31958 39944 ft 511 kts 106°
2026-04-13 18:04 50.11555 8.42702 39942 ft 510 kts 106°
2026-04-13 18:04 50.09872 8.53453 39966 ft 511 kts 106°
2026-04-13 18:05 50.08180 8.64200 39968 ft 511 kts 106°
2026-04-13 18:05 50.06479 8.74938 39963 ft 511 kts 106°
2026-04-13 18:06 50.04441 8.85491 39956 ft 508 kts 112°
2026-04-13 18:06 50.02088 8.95866 39950 ft 509 kts 112°
2026-04-13 18:07 49.99748 9.06242 39945 ft 509 kts 112°
2026-04-13 18:07 49.97396 9.16591 39931 ft 505 kts 112°
2026-04-13 18:08 49.95045 9.26873 39938 ft 506 kts 112°
2026-04-13 18:08 49.92657 9.37259 39936 ft 506 kts 112°
2026-04-13 18:09 49.90308 9.47431 39934 ft 505 kts 112°
2026-04-13 18:09 49.87929 9.57684 39912 ft 506 kts 112°
2026-04-13 18:10 49.85534 9.67953 39926 ft 507 kts 112°
2026-04-13 18:10 49.83131 9.78210 39926 ft 507 kts 112°
2026-04-13 18:11 49.81108 9.86808 39914 ft 506 kts 112°
2026-04-13 18:11 49.78691 9.97035 39916 ft 506 kts 112°
2026-04-13 18:12 49.76260 10.07274 39910 ft 507 kts 112°
2026-04-13 18:12 49.73825 10.17479 39908 ft 508 kts 113°
2026-04-13 18:13 49.71369 10.27726 39908 ft 508 kts 113°
2026-04-13 18:13 49.68905 10.37958 39909 ft 508 kts 113°
2026-04-13 18:14 49.66439 10.48156 39911 ft 505 kts 113°
2026-04-13 18:14 49.63972 10.58302 39907 ft 505 kts 113°
2026-04-13 18:15 49.61498 10.68432 39892 ft 505 kts 114°
2026-04-13 18:15 49.59015 10.78553 39891 ft 505 kts 114°
2026-04-13 18:16 49.56531 10.88635 39887 ft 500 kts 114°
2026-04-13 18:16 49.54074 10.98560 39883 ft 499 kts 114°
2026-04-13 18:17 49.51507 11.08496 39884 ft 499 kts 116°
2026-04-13 18:17 49.48824 11.18330 39883 ft 499 kts 115°
2026-04-13 18:18 49.46156 11.28155 39895 ft 498 kts 115°
2026-04-13 18:18 49.43475 11.37957 39891 ft 497 kts 116°
2026-04-13 18:19 49.40785 11.47730 39872 ft 497 kts 116°
2026-04-13 18:19 49.38086 11.57498 39875 ft 495 kts 116°
2026-04-13 18:20 49.35389 11.67218 39865 ft 495 kts 116°
2026-04-13 18:20 49.32680 11.76943 39877 ft 496 kts 116°
2026-04-13 18:21 49.29964 11.86652 39874 ft 496 kts 116°
2026-04-13 18:21 49.27214 11.96442 39870 ft 496 kts 116°
2026-04-13 18:22 49.24489 12.06101 39854 ft 496 kts 116°
2026-04-13 18:22 49.21744 12.15793 39868 ft 497 kts 116°
2026-04-13 18:23 49.18989 12.25482 39869 ft 497 kts 116°
2026-04-13 18:23 49.16228 12.35156 39862 ft 497 kts 116°
2026-04-13 18:24 49.13458 12.44818 39862 ft 497 kts 116°
2026-04-13 18:24 49.10677 12.54478 39857 ft 497 kts 116°
2026-04-13 18:25 49.07887 12.64133 39859 ft 497 kts 116°
2026-04-13 18:25 49.05091 12.73772 39859 ft 497 kts 116°
2026-04-13 18:26 49.02287 12.83395 39863 ft 496 kts 116°
2026-04-13 18:26 48.99488 12.92966 39861 ft 497 kts 116°
2026-04-13 18:27 48.96676 13.02543 39868 ft 497 kts 116°
2026-04-13 18:27 48.93832 13.12192 39861 ft 497 kts 116°
2026-04-13 18:28 48.90995 13.21779 39861 ft 497 kts 116°
2026-04-13 18:28 48.88166 13.31299 39861 ft 498 kts 116°
2026-04-13 18:29 48.85290 13.40944 39865 ft 498 kts 116°
2026-04-13 18:29 48.82423 13.50518 39871 ft 498 kts 116°
2026-04-13 18:30 48.79550 13.60076 39871 ft 498 kts 116°
2026-04-13 18:30 48.76671 13.69624 39867 ft 498 kts 116°
2026-04-13 18:31 48.73820 13.79200 39878 ft 499 kts 116°
2026-04-13 18:31 48.71007 13.88810 39887 ft 499 kts 116°
2026-04-13 18:32 48.68185 13.98399 39887 ft 499 kts 116°
2026-04-13 18:32 48.65349 14.07975 39888 ft 498 kts 116°
2026-04-13 18:33 48.62506 14.17524 39889 ft 498 kts 116°
2026-04-13 18:33 48.59657 14.27044 39897 ft 498 kts 117°
2026-04-13 18:34 48.55363 14.41325 39901 ft 498 kts 116°
2026-04-13 18:34 48.52502 14.50822 39905 ft 497 kts 116°
2026-04-13 18:35 48.49699 14.60078 39888 ft 497 kts 116°
2026-04-13 18:35 48.46816 14.69555 39923 ft 497 kts 117°
2026-04-13 18:36 48.43928 14.79014 39931 ft 497 kts 117°
2026-04-13 18:36 48.41034 14.88460 39926 ft 496 kts 117°
2026-04-13 18:37 48.38142 14.97862 39944 ft 495 kts 117°
2026-04-13 18:37 48.35231 15.07285 39935 ft 495 kts 117°
2026-04-13 18:38 48.32302 15.16734 39950 ft 496 kts 117°
2026-04-13 18:38 48.29396 15.26069 39949 ft 498 kts 117°
2026-04-13 18:39 48.26437 15.35546 39958 ft 498 kts 117°
2026-04-13 18:39 48.23489 15.44951 39963 ft 498 kts 117°
2026-04-13 18:40 48.20534 15.54342 39964 ft 498 kts 117°
2026-04-13 18:40 48.17571 15.63729 39966 ft 497 kts 117°
2026-04-13 18:41 48.14595 15.73110 39972 ft 499 kts 118°
2026-04-13 18:41 48.11622 15.82456 39975 ft 498 kts 118°
2026-04-13 18:42 48.08627 15.91830 39980 ft 499 kts 117°
2026-04-13 18:42 48.05630 16.01178 39986 ft 501 kts 117°
2026-04-13 18:43 48.02609 16.10568 39990 ft 500 kts 117°
2026-04-13 18:43 47.99587 16.19925 39994 ft 500 kts 117°
2026-04-13 18:44 47.96555 16.29280 39998 ft 500 kts 117°
2026-04-13 18:44 47.93516 16.38623 39989 ft 500 kts 117°
2026-04-13 18:45 47.90471 16.47947 39996 ft 500 kts 117°
2026-04-13 18:45 47.87417 16.57264 40004 ft 501 kts 118°
2026-04-13 18:46 47.84353 16.66581 40001 ft 501 kts 118°
2026-04-13 18:46 47.81282 16.75884 40005 ft 501 kts 118°
2026-04-13 18:47 47.78701 16.83675 39999 ft 501 kts 118°
2026-04-13 18:47 47.75117 16.94458 39997 ft 501 kts 118°
2026-04-13 18:48 47.72529 17.02228 40002 ft 501 kts 118°
2026-04-13 18:48 47.69434 17.11497 39995 ft 501 kts 118°
2026-04-13 18:49 47.66343 17.20763 40002 ft 501 kts 118°
2026-04-13 18:49 47.63260 17.30013 40008 ft 501 kts 118°
2026-04-13 18:50 47.60163 17.39265 40013 ft 501 kts 118°
2026-04-13 18:50 47.57055 17.48506 40014 ft 502 kts 118°
2026-04-13 18:51 47.53936 17.57741 40033 ft 501 kts 118°
2026-04-13 18:51 47.50811 17.66965 40038 ft 501 kts 118°
2026-04-13 18:52 47.47676 17.76183 40037 ft 501 kts 118°
2026-04-13 18:52 47.44533 17.85391 40010 ft 502 kts 118°
2026-04-13 18:53 47.41378 17.94601 40012 ft 502 kts 118°
2026-04-13 18:53 47.38212 18.03811 40007 ft 503 kts 118°
2026-04-13 18:54 47.35044 18.12997 40010 ft 502 kts 119°
2026-04-13 18:54 47.31862 18.22188 40015 ft 504 kts 118°
2026-04-13 18:55 47.28675 18.31365 40014 ft 503 kts 118°
2026-04-13 18:55 47.25478 18.40536 40017 ft 503 kts 119°
2026-04-13 18:56 47.22272 18.49700 40011 ft 504 kts 119°
2026-04-13 18:56 47.19057 18.58859 40015 ft 504 kts 119°
2026-04-13 18:57 47.15833 18.68013 40018 ft 504 kts 119°
2026-04-13 18:57 47.12581 18.77212 40018 ft 504 kts 119°
2026-04-13 18:58 47.09345 18.86337 40014 ft 504 kts 119°
2026-04-13 18:58 47.06094 18.95471 40017 ft 505 kts 119°
2026-04-13 18:59 47.02831 19.04604 40019 ft 506 kts 119°
2026-04-13 18:59 46.99564 19.13721 40017 ft 506 kts 119°
2026-04-13 19:00 46.96285 19.22839 40023 ft 506 kts 119°
2026-04-13 19:00 46.92997 19.31950 40021 ft 506 kts 119°
2026-04-13 19:01 46.89704 19.41045 40019 ft 506 kts 119°
2026-04-13 19:01 46.86399 19.50141 40014 ft 506 kts 119°
2026-04-13 19:02 46.83090 19.59217 40015 ft 507 kts 119°
2026-04-13 19:02 46.79789 19.68240 40018 ft 507 kts 119°
2026-04-13 19:03 46.76461 19.77308 40020 ft 507 kts 120°
2026-04-13 19:03 46.73133 19.86345 40019 ft 507 kts 119°
2026-04-13 19:04 46.69776 19.95428 40016 ft 509 kts 120°
2026-04-13 19:04 46.66398 20.04536 40016 ft 508 kts 119°
2026-04-13 19:05 46.63031 20.13587 40015 ft 508 kts 120°
2026-04-13 19:05 46.59661 20.22615 40018 ft 508 kts 120°
2026-04-13 19:06 46.56281 20.31638 40017 ft 508 kts 120°
2026-04-13 19:06 46.52898 20.40642 40012 ft 508 kts 120°
2026-04-13 19:07 46.49527 20.49581 40012 ft 508 kts 120°
2026-04-13 19:07 46.46124 20.58575 40013 ft 510 kts 120°
2026-04-13 19:08 46.42688 20.67628 40012 ft 509 kts 120°
2026-04-13 19:08 46.39268 20.76609 40018 ft 509 kts 120°
2026-04-13 19:09 46.35860 20.85529 40015 ft 509 kts 120°
2026-04-13 19:09 46.32399 20.94557 40017 ft 510 kts 120°
2026-04-13 19:10 46.28953 21.03528 40019 ft 510 kts 120°
2026-04-13 19:10 46.25609 21.12494 40018 ft 511 kts 115°
2026-04-13 19:11 46.22807 21.21937 40010 ft 511 kts 114°
2026-04-13 19:11 46.20012 21.31460 40023 ft 512 kts 114°
2026-04-13 19:12 46.17208 21.40909 40021 ft 512 kts 114°
2026-04-13 19:12 46.14390 21.50344 40021 ft 512 kts 114°
2026-04-13 19:13 46.11578 21.59713 40026 ft 513 kts 114°
2026-04-13 19:13 46.08713 21.69208 40035 ft 513 kts 114°
2026-04-13 19:14 46.05875 21.78572 40040 ft 513 kts 114°
2026-04-13 19:14 46.03012 21.87987 40038 ft 513 kts 115°
2026-04-13 19:15 46.00136 21.97405 40046 ft 514 kts 114°
2026-04-13 19:15 45.97253 22.06811 40055 ft 514 kts 115°
2026-04-13 19:16 45.94360 22.16218 40050 ft 514 kts 115°
2026-04-13 19:16 45.91460 22.25609 40058 ft 515 kts 115°
2026-04-13 19:17 45.88550 22.35000 40076 ft 515 kts 115°
2026-04-13 19:17 45.85631 22.44387 40075 ft 515 kts 115°
2026-04-13 19:18 45.82704 22.53764 40078 ft 515 kts 115°
2026-04-13 19:18 45.79770 22.63127 40081 ft 516 kts 115°
2026-04-13 19:19 45.76821 22.72504 40110 ft 516 kts 115°
2026-04-13 19:19 45.73867 22.81865 40117 ft 516 kts 115°
2026-04-13 19:20 45.70906 22.91212 40105 ft 516 kts 115°
2026-04-13 19:20 45.67930 23.00573 40118 ft 517 kts 115°
2026-04-13 19:21 45.64944 23.09933 40136 ft 518 kts 115°
2026-04-13 19:21 45.61955 23.19265 40155 ft 517 kts 115°
2026-04-13 19:22 45.58955 23.28602 40156 ft 518 kts 115°
2026-04-13 19:22 45.55935 23.37964 40149 ft 520 kts 115°
2026-04-13 19:23 45.52905 23.47324 40185 ft 519 kts 115°
2026-04-13 19:23 45.49872 23.56659 40200 ft 519 kts 115°
2026-04-13 19:24 45.46831 23.65985 40186 ft 519 kts 115°
2026-04-13 19:24 45.43786 23.75293 40188 ft 519 kts 116°
2026-04-13 19:25 45.40727 23.84608 40213 ft 519 kts 116°
2026-04-13 19:25 45.37660 23.93908 40218 ft 520 kts 116°
2026-04-13 19:26 45.35099 24.01651 40206 ft 521 kts 116°
2026-04-13 19:26 45.32015 24.10949 40225 ft 521 kts 116°
2026-04-13 19:27 45.28919 24.20257 40226 ft 520 kts 116°
2026-04-13 19:27 45.25816 24.29546 40203 ft 522 kts 116°
2026-04-13 19:28 45.22696 24.38856 40221 ft 523 kts 116°
2026-04-13 19:28 45.19567 24.48156 40236 ft 523 kts 116°
2026-04-13 19:29 45.16431 24.57446 40227 ft 522 kts 116°
2026-04-13 19:29 45.13275 24.66761 40207 ft 524 kts 116°
2026-04-13 19:30 45.10115 24.76058 40226 ft 525 kts 116°
2026-04-13 19:30 45.06942 24.85360 40239 ft 525 kts 116°
2026-04-13 19:31 45.03759 24.94656 40215 ft 526 kts 116°
2026-04-13 19:31 45.00564 25.03958 40213 ft 526 kts 116°
2026-04-13 19:32 44.97365 25.13237 40240 ft 526 kts 116°
2026-04-13 19:32 44.94156 25.22512 40247 ft 526 kts 116°
2026-04-13 19:33 44.90934 25.31797 40218 ft 527 kts 116°
2026-04-13 19:34 44.86082 25.45713 40230 ft 528 kts 116°
2026-04-13 19:34 44.82834 25.54991 40237 ft 528 kts 116°
2026-04-13 19:35 44.79573 25.64272 40228 ft 528 kts 116°
2026-04-13 19:35 44.76307 25.73537 40220 ft 528 kts 116°
2026-04-13 19:36 44.73030 25.82801 40243 ft 529 kts 116°
2026-04-13 19:36 44.69737 25.92076 40251 ft 532 kts 116°
2026-04-13 19:37 44.66427 26.01369 40233 ft 531 kts 116°
2026-04-13 19:37 44.63114 26.10640 40227 ft 531 kts 116°
2026-04-13 19:38 44.59789 26.19911 40237 ft 534 kts 116°
2026-04-13 19:38 44.56441 26.29217 40237 ft 534 kts 116°
2026-04-13 19:39 44.53113 26.38434 40242 ft 534 kts 117°
2026-04-13 19:39 44.49753 26.47709 40249 ft 535 kts 117°
2026-04-13 19:40 44.46376 26.56999 40244 ft 536 kts 117°
2026-04-13 19:40 44.42985 26.66296 40246 ft 536 kts 117°
2026-04-13 19:41 44.39591 26.75571 40254 ft 536 kts 117°
2026-04-13 19:41 44.36188 26.84839 40251 ft 536 kts 117°
2026-04-13 19:42 44.31070 26.98718 40249 ft 536 kts 117°
2026-04-13 19:42 44.27646 27.07965 40254 ft 537 kts 117°
2026-04-13 19:43 44.24204 27.17229 40256 ft 537 kts 117°
2026-04-13 19:43 44.20763 27.26458 40257 ft 537 kts 117°
2026-04-13 19:44 44.17308 27.35695 40261 ft 537 kts 117°
2026-04-13 19:44 44.13846 27.44921 40265 ft 539 kts 117°
2026-04-13 19:45 44.10372 27.54148 40265 ft 539 kts 117°
2026-04-13 19:45 44.06888 27.63371 40267 ft 539 kts 117°
2026-04-13 19:46 44.03393 27.72593 40365 ft 540 kts 117°
2026-04-13 19:46 44.01644 27.77196 40603 ft 538 kts 117°
2026-04-13 19:46 43.99896 27.81787 40848 ft 536 kts 117°
2026-04-13 19:47 43.98160 27.86342 41096 ft 533 kts 117°
2026-04-13 19:47 43.96423 27.90892 41257 ft 533 kts 118°
2026-04-13 19:47 43.92902 28.00090 41276 ft 539 kts 118°
2026-04-13 19:48 43.89405 28.09199 41279 ft 536 kts 118°
2026-04-13 19:48 43.85860 28.18401 41279 ft 538 kts 118°
2026-04-13 19:49 43.82356 28.27477 41292 ft 538 kts 118°
2026-04-13 19:49 43.78812 28.36639 41285 ft 540 kts 118°
2026-04-13 19:50 43.75257 28.45800 41284 ft 540 kts 118°
2026-04-13 19:50 43.71418 28.54719 41288 ft 540 kts 123°
2026-04-13 19:51 43.67359 28.63484 41292 ft 541 kts 122°
2026-04-13 19:51 43.63339 28.72260 41295 ft 541 kts 122°
2026-04-13 19:52 43.59298 28.81007 41295 ft 539 kts 123°
2026-04-13 19:52 43.55242 28.89736 41295 ft 542 kts 123°
2026-04-13 19:53 43.51175 28.98464 41295 ft 541 kts 123°
2026-04-13 19:53 43.47098 29.07189 41295 ft 541 kts 123°
2026-04-13 19:54 43.43014 29.15902 41295 ft 543 kts 123°
2026-04-13 19:54 43.38914 29.24623 41292 ft 543 kts 123°
2026-04-13 19:55 43.34806 29.33335 41295 ft 543 kts 123°
2026-04-13 19:55 43.30691 29.42038 41295 ft 544 kts 123°
2026-04-13 19:56 43.26567 29.50733 41292 ft 544 kts 123°
2026-04-13 19:56 43.22411 29.59469 41293 ft 550 kts 123°
2026-04-13 19:57 43.18219 29.68254 41293 ft 548 kts 123°
2026-04-13 19:57 43.14039 29.76990 41292 ft 549 kts 123°
2026-04-13 19:58 43.09849 29.85721 41285 ft 547 kts 123°
2026-04-13 19:58 43.05658 29.94426 41293 ft 549 kts 123°
2026-04-13 19:59 43.01457 30.03128 41293 ft 549 kts 123°
2026-04-13 19:59 42.97242 30.11832 41292 ft 549 kts 123°
2026-04-13 20:00 42.93025 30.20515 41298 ft 550 kts 123°
2026-04-13 20:00 42.88787 30.29215 41293 ft 550 kts 123°
2026-04-13 20:01 42.84548 30.37895 41293 ft 550 kts 123°
2026-04-13 20:01 42.80298 30.46569 41291 ft 551 kts 123°
2026-04-13 20:02 42.76042 30.55258 41289 ft 551 kts 121°
2026-04-13 20:02 42.72777 30.64655 41290 ft 550 kts 106°
2026-04-13 20:03 42.70619 30.74613 41299 ft 550 kts 105°
2026-04-13 20:03 42.68444 30.84583 41292 ft 550 kts 105°
2026-04-13 20:04 42.66262 30.94554 41289 ft 550 kts 105°
2026-04-13 20:04 42.64070 31.04514 41288 ft 550 kts 105°
2026-04-13 20:05 42.61866 31.14474 41289 ft 551 kts 105°
2026-04-13 20:05 42.59650 31.24434 41290 ft 551 kts 105°
2026-04-13 20:06 42.57423 31.34396 41292 ft 551 kts 105°
2026-04-13 20:06 42.55566 31.42670 41292 ft 552 kts 105°
2026-04-13 20:07 42.53307 31.52692 41290 ft 552 kts 105°
2026-04-13 20:07 42.51068 31.62584 41287 ft 552 kts 105°
2026-04-13 20:08 42.48806 31.72529 41282 ft 553 kts 105°
2026-04-13 20:08 42.46532 31.82483 41291 ft 553 kts 105°
2026-04-13 20:09 42.44248 31.92433 41287 ft 553 kts 105°
2026-04-13 20:09 42.41957 32.02372 41304 ft 553 kts 105°
2026-04-13 20:10 42.39656 32.12310 41291 ft 554 kts 105°
2026-04-13 20:10 42.37345 32.22243 41288 ft 553 kts 105°
2026-04-13 20:11 42.35029 32.32157 41287 ft 553 kts 105°
2026-04-13 20:11 42.32699 32.42088 41286 ft 554 kts 105°
2026-04-13 20:12 42.30361 32.52005 41292 ft 554 kts 105°
2026-04-13 20:12 42.28017 32.61907 41289 ft 554 kts 105°
2026-04-13 20:13 42.25661 32.71813 41287 ft 554 kts 106°
2026-04-13 20:13 42.23300 32.81702 41288 ft 554 kts 106°
2026-04-13 20:14 42.20927 32.91596 41288 ft 554 kts 106°
2026-04-13 20:14 42.18546 33.01480 41290 ft 554 kts 106°
2026-04-13 20:15 42.16158 33.11351 41291 ft 554 kts 106°
2026-04-13 20:15 42.13758 33.21226 41293 ft 554 kts 106°
2026-04-13 20:16 42.11350 33.31097 41278 ft 554 kts 106°
2026-04-13 20:16 42.08934 33.40953 41303 ft 555 kts 106°
2026-04-13 20:17 42.06512 33.50795 41308 ft 554 kts 106°
2026-04-13 20:17 42.04078 33.60645 41295 ft 553 kts 107°
2026-04-13 20:18 42.01641 33.70462 41292 ft 554 kts 107°
2026-04-13 20:18 41.99196 33.80274 41312 ft 554 kts 107°
2026-04-13 20:19 41.96739 33.90090 41322 ft 553 kts 107°
2026-04-13 20:19 41.94281 33.99869 41298 ft 552 kts 107°
2026-04-13 20:20 41.91817 34.09631 41292 ft 552 kts 107°
2026-04-13 20:20 41.89345 34.19390 41301 ft 553 kts 107°
2026-04-13 20:21 41.86863 34.29145 41292 ft 552 kts 107°
2026-04-13 20:21 41.84373 34.38888 41291 ft 552 kts 107°
2026-04-13 20:22 41.81875 34.48626 41290 ft 552 kts 107°
2026-04-13 20:22 41.79367 34.58365 41285 ft 553 kts 107°
2026-04-13 20:23 41.76850 34.68098 41283 ft 553 kts 107°
2026-04-13 20:23 41.74322 34.77829 41275 ft 553 kts 108°
2026-04-13 20:24 41.71803 34.87492 41279 ft 553 kts 108°
2026-04-13 20:24 41.69262 34.97202 41302 ft 554 kts 108°
2026-04-13 20:25 41.66706 35.06928 41273 ft 554 kts 108°
2026-04-13 20:25 41.64140 35.16650 41273 ft 555 kts 108°
2026-04-13 20:26 41.61564 35.26375 41270 ft 555 kts 108°
2026-04-13 20:26 41.58981 35.36085 41263 ft 555 kts 108°
2026-04-13 20:27 41.56389 35.45792 41262 ft 555 kts 109°
2026-04-13 20:27 41.53786 35.55501 41259 ft 556 kts 109°
2026-04-13 20:28 41.51174 35.65202 41262 ft 556 kts 109°
2026-04-13 20:28 41.48551 35.74896 41257 ft 556 kts 109°
2026-04-13 20:29 41.45925 35.84582 41259 ft 555 kts 109°
2026-04-13 20:29 41.43290 35.94260 41265 ft 556 kts 109°
2026-04-13 20:30 41.40642 36.03954 41275 ft 557 kts 109°
2026-04-13 20:30 41.38204 36.13728 41277 ft 555 kts 99°
2026-04-13 20:31 41.37740 36.23912 41278 ft 551 kts 86°
2026-04-13 20:31 41.37759 36.34111 41294 ft 552 kts 89°
2026-04-13 20:32 41.37453 36.44335 41318 ft 553 kts 90°
2026-04-13 20:32 41.37029 36.54572 41303 ft 553 kts 91°
2026-04-13 20:33 41.36586 36.64802 41317 ft 554 kts 91°
2026-04-13 20:33 41.36132 36.75044 41314 ft 554 kts 91°
2026-04-13 20:34 41.35670 36.85275 41312 ft 554 kts 91°
2026-04-13 20:34 41.35199 36.95507 41307 ft 554 kts 91°
2026-04-13 20:35 41.34719 37.05744 41305 ft 554 kts 91°
2026-04-13 20:35 41.34229 37.15970 41299 ft 553 kts 91°
2026-04-13 20:36 41.33732 37.26176 41295 ft 553 kts 91°
2026-04-13 20:36 41.33226 37.36370 41296 ft 553 kts 91°
2026-04-13 20:37 41.32713 37.46523 41292 ft 553 kts 91°
2026-04-13 20:37 41.32189 37.56728 41299 ft 553 kts 91°
2026-04-13 20:38 41.31656 37.66929 41290 ft 553 kts 92°
2026-04-13 20:38 41.31114 37.77112 41292 ft 551 kts 92°
2026-04-13 20:39 41.30564 37.87279 41286 ft 551 kts 92°
2026-04-13 20:39 41.30006 37.97433 41288 ft 550 kts 92°
2026-04-13 20:40 41.29440 38.07580 41294 ft 550 kts 92°
2026-04-13 20:40 41.28864 38.17728 41302 ft 550 kts 92°
2026-04-13 20:41 41.28279 38.27875 41300 ft 550 kts 92°
2026-04-13 20:41 41.27686 38.38013 41306 ft 549 kts 92°
2026-04-13 20:42 41.27086 38.48119 41305 ft 549 kts 92°
2026-04-13 20:42 41.26476 38.58237 41296 ft 549 kts 93°
2026-04-13 20:43 41.25858 38.68343 41289 ft 548 kts 93°
2026-04-13 20:43 41.25232 38.78441 41291 ft 549 kts 93°
2026-04-13 20:44 41.24595 38.88555 41292 ft 549 kts 93°
2026-04-13 20:44 41.23950 38.98665 41309 ft 549 kts 93°
2026-04-13 20:45 41.23296 39.08765 41294 ft 549 kts 94°
2026-04-13 20:46 41.22300 39.23902 41295 ft 548 kts 94°
2026-04-13 20:46 41.21624 39.33995 41297 ft 548 kts 94°
2026-04-13 20:47 41.20940 39.44090 41303 ft 548 kts 94°
2026-04-13 20:47 41.20247 39.54174 41300 ft 548 kts 94°
2026-04-13 20:48 41.19545 39.64260 41308 ft 548 kts 94°
2026-04-13 20:48 41.18956 39.72629 41296 ft 548 kts 94°
2026-04-13 20:49 41.18239 39.82694 41296 ft 548 kts 94°
2026-04-13 20:49 41.17514 39.92754 41290 ft 548 kts 94°
2026-04-13 20:50 41.16779 40.02824 41296 ft 548 kts 94°
2026-04-13 20:50 41.16035 40.12887 41292 ft 548 kts 95°
2026-04-13 20:51 41.15341 40.22174 41294 ft 548 kts 95°
2026-04-13 20:51 41.14582 40.32225 41295 ft 548 kts 95°
2026-04-13 20:52 41.13814 40.42259 41299 ft 548 kts 95°
2026-04-13 20:52 41.13097 40.51543 41298 ft 548 kts 95°
2026-04-13 20:53 41.12310 40.61601 41296 ft 548 kts 95°
2026-04-13 20:53 41.11515 40.71664 41298 ft 549 kts 95°
2026-04-13 20:54 41.10711 40.81724 41295 ft 548 kts 95°
2026-04-13 20:54 41.09899 40.91762 41295 ft 547 kts 95°
2026-04-13 20:55 41.09078 41.01796 41295 ft 548 kts 95°
2026-04-13 20:55 41.08250 41.11824 41297 ft 548 kts 95°
2026-04-13 20:56 41.07412 41.21857 41294 ft 547 kts 96°
2026-04-13 20:56 41.06566 41.31886 41284 ft 547 kts 96°
2026-04-13 20:57 41.05711 41.41911 41288 ft 547 kts 96°
2026-04-13 20:57 41.04846 41.51950 41299 ft 548 kts 96°
2026-04-13 20:58 41.03975 41.61959 41280 ft 547 kts 96°
2026-04-13 20:58 41.03095 41.71966 41286 ft 547 kts 96°
2026-04-13 20:59 41.02207 41.81969 41273 ft 547 kts 96°
2026-04-13 20:59 41.01310 41.91966 41278 ft 547 kts 96°
2026-04-13 21:00 41.00405 42.01953 41268 ft 547 kts 96°
2026-04-13 21:00 40.99490 42.11940 41270 ft 547 kts 96°
2026-04-13 21:01 40.98569 42.21911 41259 ft 546 kts 97°
2026-04-13 21:01 40.97639 42.31882 41269 ft 546 kts 97°
2026-04-13 21:02 40.96701 42.41841 41266 ft 546 kts 97°
2026-04-13 21:02 40.95754 42.51811 41261 ft 546 kts 97°
2026-04-13 21:03 40.94798 42.61768 41242 ft 546 kts 97°
2026-04-13 21:03 40.93832 42.71743 41231 ft 546 kts 97°
2026-04-13 21:04 40.92862 42.81679 41235 ft 545 kts 97°
2026-04-13 21:04 40.91890 42.91530 41210 ft 545 kts 98°
2026-04-13 21:05 40.90895 43.01533 41194 ft 545 kts 98°
2026-04-13 21:05 40.89904 43.11407 41191 ft 545 kts 98°
2026-04-13 21:06 40.88898 43.21336 41182 ft 545 kts 98°
2026-04-13 21:06 40.87877 43.31329 41168 ft 545 kts 98°
2026-04-13 21:07 40.86890 43.40932 41167 ft 543 kts 98°
2026-04-13 21:07 40.85869 43.50824 41157 ft 543 kts 98°
2026-04-13 21:08 40.84842 43.60706 41154 ft 543 kts 98°
2026-04-13 21:08 40.83815 43.70582 41163 ft 543 kts 96°
2026-04-13 21:09 40.83458 43.80556 41151 ft 544 kts 91°
2026-04-13 21:09 40.83255 43.90539 41159 ft 544 kts 92°
2026-04-13 21:10 40.82951 44.00506 41152 ft 542 kts 93°
2026-04-13 21:10 40.82609 44.10456 41151 ft 543 kts 93°
2026-04-13 21:11 40.82255 44.20403 41147 ft 543 kts 93°
2026-04-13 21:11 40.81893 44.30363 41144 ft 543 kts 93°
2026-04-13 21:12 40.81522 44.40316 41142 ft 543 kts 93°
2026-04-13 21:12 40.81145 44.50246 41140 ft 541 kts 93°
2026-04-13 21:13 40.80759 44.60178 41140 ft 542 kts 94°
2026-04-13 21:13 40.80363 44.70114 41143 ft 542 kts 94°
2026-04-13 21:14 40.79960 44.80040 41140 ft 542 kts 94°
2026-04-13 21:14 40.79547 44.89978 41139 ft 542 kts 94°
2026-04-13 21:15 40.79130 44.99841 41137 ft 541 kts 94°
2026-04-13 21:15 40.78698 45.09828 41134 ft 542 kts 94°
2026-04-13 21:16 40.78260 45.19754 41136 ft 542 kts 94°
2026-04-13 21:16 40.77817 45.29614 41137 ft 542 kts 94°
2026-04-13 21:17 40.77363 45.39537 41138 ft 542 kts 94°
2026-04-13 21:17 40.76897 45.49462 41134 ft 542 kts 95°
2026-04-13 21:18 40.76027 45.59317 41138 ft 541 kts 98°
2026-04-13 21:18 40.75153 45.69172 41137 ft 541 kts 97°
2026-04-13 21:19 40.74266 45.79020 41130 ft 541 kts 98°
2026-04-13 21:19 40.73364 45.88863 41121 ft 541 kts 98°
2026-04-13 21:20 40.72450 45.98714 41120 ft 541 kts 98°
2026-04-13 21:20 40.71529 46.08556 41106 ft 541 kts 98°
2026-04-13 21:21 40.70599 46.18403 41099 ft 541 kts 98°
2026-04-13 21:21 40.69660 46.28247 41092 ft 542 kts 98°
2026-04-13 21:22 40.68713 46.38088 41102 ft 542 kts 98°
2026-04-13 21:22 40.67757 46.47932 41104 ft 542 kts 98°
2026-04-13 21:23 40.66793 46.57772 41110 ft 541 kts 98°
2026-04-13 21:23 40.65824 46.67571 41101 ft 539 kts 98°
2026-04-13 21:24 40.64848 46.77364 41109 ft 539 kts 98°
2026-04-13 21:24 40.63863 46.87150 41111 ft 539 kts 98°
2026-04-13 21:25 40.62869 46.96939 41104 ft 539 kts 99°
2026-04-13 21:25 40.61875 47.06656 41092 ft 539 kts 99°
2026-04-13 21:26 40.60867 47.16429 41101 ft 537 kts 99°
2026-04-13 21:26 40.60431 47.26249 41103 ft 538 kts 93°
2026-04-13 21:27 40.60172 47.36085 41107 ft 538 kts 93°
2026-04-13 21:27 40.59889 47.45918 41112 ft 538 kts 93°
2026-04-13 21:28 40.59595 47.55747 41114 ft 538 kts 93°
2026-04-13 21:28 40.59293 47.65567 41121 ft 536 kts 94°
2026-04-13 21:29 40.58982 47.75376 41118 ft 536 kts 94°
2026-04-13 21:29 40.58664 47.85169 41118 ft 536 kts 94°
2026-04-13 21:30 40.58352 47.94977 41102 ft 537 kts 91°
2026-04-13 21:30 40.58611 48.04810 41119 ft 538 kts 89°
2026-04-13 21:31 40.58889 48.14631 41115 ft 537 kts 89°
2026-04-13 21:31 40.59150 48.24438 41122 ft 537 kts 89°
2026-04-13 21:32 40.59360 48.32538 41124 ft 537 kts 90°
2026-04-13 21:32 40.59607 48.42389 41128 ft 537 kts 90°
2026-04-13 21:33 40.59831 48.51553 41127 ft 536 kts 90°
2026-04-13 21:33 40.60061 48.61352 41130 ft 536 kts 90°
2026-04-13 21:34 40.60390 48.76059 41125 ft 536 kts 90°
2026-04-13 21:34 40.60601 48.85923 41131 ft 536 kts 90°
2026-04-13 21:35 40.60803 48.95720 41135 ft 535 kts 91°
2026-04-13 21:36 40.61087 49.10395 41128 ft 535 kts 91°
2026-04-13 21:36 40.60974 49.20160 41122 ft 532 kts 99°
2026-04-13 21:37 40.59636 49.29686 41119 ft 529 kts 104°
2026-04-13 21:37 40.58180 49.38943 41108 ft 529 kts 104°
2026-04-13 21:38 40.56692 49.48408 41109 ft 528 kts 105°
2026-04-13 21:38 40.55145 49.57845 41104 ft 528 kts 105°
2026-04-13 21:39 40.53583 49.67252 41118 ft 528 kts 105°
2026-04-13 21:39 40.52016 49.76682 41121 ft 528 kts 105°
2026-04-13 21:40 40.50441 49.86116 41099 ft 529 kts 105°
2026-04-13 21:40 40.48858 49.95552 41099 ft 529 kts 105°
2026-04-13 21:41 40.47272 50.04961 41100 ft 526 kts 105°
2026-04-13 21:41 40.45917 50.14417 41085 ft 528 kts 102°
2026-04-13 21:42 40.44712 50.23956 41102 ft 529 kts 103°
2026-04-13 21:42 40.43455 50.33466 41101 ft 529 kts 103°
2026-04-13 21:43 40.42177 50.42912 41100 ft 529 kts 103°
2026-04-13 21:43 40.40881 50.52413 41081 ft 529 kts 103°
2026-04-13 21:44 40.39579 50.61906 41096 ft 529 kts 104°
2026-04-13 21:44 40.38269 50.71393 41089 ft 529 kts 104°
2026-04-13 21:45 40.36952 50.80872 41092 ft 528 kts 104°
2026-04-13 21:45 40.35626 50.90352 41086 ft 528 kts 104°
2026-04-13 21:46 40.34292 50.99838 41084 ft 529 kts 104°
2026-04-13 21:46 40.32950 51.09315 41092 ft 529 kts 104°
2026-04-13 21:47 40.31599 51.18802 41078 ft 529 kts 104°
2026-04-13 21:47 40.30242 51.28275 41077 ft 529 kts 104°
2026-04-13 21:48 40.28874 51.37763 41085 ft 530 kts 104°
2026-04-13 21:48 40.27500 51.47237 41062 ft 529 kts 104°
2026-04-13 21:49 40.26117 51.56717 41067 ft 530 kts 104°
2026-04-13 21:49 40.24731 51.66167 41082 ft 527 kts 105°
2026-04-13 21:50 40.23341 51.75585 41076 ft 528 kts 105°
2026-04-13 21:50 40.21940 51.85016 41058 ft 528 kts 105°
2026-04-13 21:51 40.20542 51.94379 41061 ft 528 kts 105°
2026-04-13 21:51 40.19128 52.03793 41072 ft 528 kts 105°
2026-04-13 21:52 40.17700 52.13243 41066 ft 530 kts 105°
2026-04-13 21:52 40.16260 52.22715 41067 ft 532 kts 105°
2026-04-13 21:53 40.14811 52.32197 41069 ft 532 kts 105°
2026-04-13 21:53 40.13355 52.41675 41072 ft 532 kts 105°
2026-04-13 21:54 40.11886 52.51175 41075 ft 534 kts 105°
2026-04-13 21:54 40.10408 52.60679 41075 ft 534 kts 105°
2026-04-13 21:55 40.08923 52.70178 41055 ft 534 kts 105°
2026-04-13 21:55 40.07429 52.79678 41060 ft 534 kts 106°
2026-04-13 21:56 40.05924 52.89195 41075 ft 536 kts 106°
2026-04-13 21:56 40.04402 52.98713 41073 ft 535 kts 108°
2026-04-13 21:57 40.02122 53.07854 41077 ft 529 kts 115°
2026-04-13 21:57 39.99554 53.16866 41071 ft 529 kts 115°
2026-04-13 21:58 39.97002 53.25873 41069 ft 530 kts 115°
2026-04-13 21:58 39.94439 53.34862 41061 ft 527 kts 115°
2026-04-13 21:59 39.91876 53.43815 41044 ft 528 kts 115°
2026-04-13 21:59 39.89305 53.52764 41039 ft 528 kts 115°
2026-04-13 22:00 39.86728 53.61699 41028 ft 528 kts 115°
2026-04-13 22:00 39.84157 53.70585 41021 ft 528 kts 115°
2026-04-13 22:01 39.81567 53.79509 41011 ft 527 kts 116°
2026-04-13 22:01 39.78967 53.88433 41001 ft 527 kts 116°
2026-04-13 22:02 39.76364 53.97338 40993 ft 527 kts 116°
2026-04-13 22:02 39.73754 54.06240 40977 ft 525 kts 116°
2026-04-13 22:03 39.71141 54.15118 40967 ft 526 kts 116°
2026-04-13 22:03 39.68524 54.23982 40984 ft 526 kts 116°
2026-04-13 22:04 39.65899 54.32844 40975 ft 526 kts 116°
2026-04-13 22:04 39.63266 54.41704 40963 ft 526 kts 116°
2026-04-13 22:05 39.60626 54.50556 40965 ft 526 kts 116°
2026-04-13 22:05 39.57980 54.59402 40954 ft 526 kts 116°
2026-04-13 22:06 39.55326 54.68241 40935 ft 526 kts 116°
2026-04-13 22:06 39.52663 54.77083 40950 ft 527 kts 116°
2026-04-13 22:07 39.49995 54.85914 40950 ft 527 kts 116°
2026-04-13 22:07 39.47319 54.94741 40943 ft 526 kts 116°
2026-04-13 22:08 39.44639 55.03556 40938 ft 526 kts 116°
2026-04-13 22:08 39.41950 55.12367 40938 ft 526 kts 116°
2026-04-13 22:09 39.39256 55.21168 40931 ft 527 kts 116°
2026-04-13 22:09 39.36554 55.29964 40932 ft 525 kts 116°
2026-04-13 22:10 39.33874 55.38666 40931 ft 525 kts 116°
2026-04-13 22:10 39.31169 55.47419 40925 ft 525 kts 116°
2026-04-13 22:11 39.28441 55.56165 40937 ft 524 kts 118°
2026-04-13 22:11 39.25253 55.64563 40910 ft 520 kts 121°
2026-04-13 22:12 39.22054 55.72941 40904 ft 521 kts 121°
2026-04-13 22:12 39.19072 55.80723 40918 ft 521 kts 121°
2026-04-13 22:13 39.15860 55.89066 40909 ft 519 kts 121°
2026-04-13 22:13 39.12642 55.97395 40908 ft 519 kts 121°
2026-04-13 22:14 39.09418 56.05717 40896 ft 521 kts 121°
2026-04-13 22:14 39.06164 56.14091 40900 ft 523 kts 121°
2026-04-13 22:15 39.02916 56.22432 40903 ft 523 kts 121°
2026-04-13 22:15 38.99741 56.30853 40885 ft 526 kts 116°
2026-04-13 22:16 38.97306 56.39734 40901 ft 526 kts 114°
2026-04-13 22:16 38.94881 56.48599 40900 ft 526 kts 114°
2026-04-13 22:17 38.92852 56.55964 40899 ft 526 kts 114°
2026-04-13 22:17 38.90403 56.64827 40888 ft 527 kts 114°
2026-04-13 22:18 38.87936 56.73728 40891 ft 529 kts 114°
2026-04-13 22:18 38.85463 56.82624 40894 ft 529 kts 114°
2026-04-13 22:19 38.82989 56.91494 40892 ft 528 kts 114°
2026-04-13 22:19 38.80504 57.00365 40886 ft 531 kts 114°
2026-04-13 22:20 38.78002 57.09272 40886 ft 530 kts 114°
2026-04-13 22:20 38.75487 57.18201 40883 ft 529 kts 114°
2026-04-13 22:21 38.72999 57.26994 40888 ft 529 kts 115°
2026-04-13 22:21 38.70480 57.35867 40877 ft 531 kts 115°
2026-04-13 22:22 38.67959 57.44728 40870 ft 529 kts 115°
2026-04-13 22:22 38.65432 57.53571 40878 ft 529 kts 115°
2026-04-13 22:23 38.62901 57.62401 40875 ft 530 kts 115°
2026-04-13 22:23 38.60105 57.71099 40863 ft 527 kts 119°
2026-04-13 22:24 38.57118 57.79647 40867 ft 527 kts 119°
2026-04-13 22:24 38.54131 57.88206 40865 ft 527 kts 119°
2026-04-13 22:25 38.51142 57.96727 40864 ft 525 kts 119°
2026-04-13 22:25 38.48146 58.05233 40864 ft 525 kts 119°
2026-04-13 22:26 38.45145 58.13729 40866 ft 525 kts 120°
2026-04-13 22:26 38.42141 58.22210 40836 ft 525 kts 120°
2026-04-13 22:27 38.39451 58.30896 40861 ft 532 kts 110°
2026-04-13 22:27 38.37653 58.40066 40857 ft 533 kts 109°
2026-04-13 22:28 38.35833 58.49216 40861 ft 533 kts 109°
2026-04-13 22:28 38.34001 58.58351 40864 ft 532 kts 109°
2026-04-13 22:29 38.32162 58.67488 40860 ft 533 kts 109°
2026-04-13 22:29 38.30314 58.76630 40859 ft 533 kts 109°
2026-04-13 22:30 38.28460 58.85766 40862 ft 533 kts 109°
2026-04-13 22:30 38.26600 58.94893 40862 ft 533 kts 109°
2026-04-13 22:31 38.24731 59.04018 40893 ft 535 kts 109°
2026-04-13 22:31 38.22859 59.13125 40859 ft 536 kts 109°
2026-04-13 22:32 38.20969 59.22283 40868 ft 536 kts 109°
2026-04-13 22:32 38.19064 59.31466 40866 ft 538 kts 109°
2026-04-13 22:33 38.17157 59.40628 40851 ft 536 kts 110°
2026-04-13 22:33 38.15238 59.49804 40869 ft 537 kts 110°
2026-04-13 22:34 38.11381 59.68130 40876 ft 537 kts 110°
2026-04-13 22:35 38.09442 59.77283 40876 ft 537 kts 110°
2026-04-13 22:35 38.07496 59.86433 40878 ft 537 kts 110°
2026-04-13 22:36 38.05541 59.95584 40884 ft 538 kts 110°
2026-04-13 22:36 38.03580 60.04731 40880 ft 537 kts 110°
2026-04-13 22:37 38.01477 60.13808 40885 ft 532 kts 118°
2026-04-13 22:37 37.97843 60.21790 40873 ft 518 kts 135°
2026-04-13 22:38 37.93024 60.28486 40890 ft 514 kts 139°
2026-04-13 22:38 37.88184 60.35158 40894 ft 514 kts 139°
2026-04-13 22:39 37.83373 60.41776 40872 ft 514 kts 139°
2026-04-13 22:39 37.78505 60.48446 40890 ft 516 kts 139°
2026-04-13 22:40 37.73632 60.55093 40900 ft 515 kts 140°
2026-04-13 22:40 37.68606 60.61525 40878 ft 514 kts 141°
2026-04-13 22:41 37.63539 60.67944 40898 ft 516 kts 141°
2026-04-13 22:41 37.58490 60.74380 40897 ft 516 kts 141°
2026-04-13 22:42 37.53442 60.80815 40901 ft 516 kts 141°
2026-04-13 22:42 37.48374 60.87261 40907 ft 518 kts 141°
2026-04-13 22:43 37.43297 60.93708 40899 ft 518 kts 141°
2026-04-13 22:43 37.38228 61.00131 40906 ft 518 kts 141°
2026-04-13 22:44 37.33152 61.06549 40910 ft 517 kts 141°
2026-04-13 22:44 37.28080 61.12949 40902 ft 516 kts 141°
2026-04-13 22:45 37.23005 61.19339 40900 ft 517 kts 141°
2026-04-13 22:45 37.17918 61.25729 40908 ft 518 kts 141°
2026-04-13 22:46 37.12850 61.32076 40912 ft 518 kts 141°
2026-04-13 22:46 37.07746 61.38454 40912 ft 518 kts 141°
2026-04-13 22:47 37.02631 61.44834 40910 ft 520 kts 141°
2026-04-13 22:47 36.97505 61.51215 40917 ft 520 kts 141°
2026-04-13 22:48 36.92379 61.57584 40919 ft 520 kts 141°
2026-04-13 22:48 36.87246 61.63948 40937 ft 522 kts 141°
2026-04-13 22:49 36.82075 61.70353 40919 ft 523 kts 141°
2026-04-13 22:49 36.76912 61.76743 40906 ft 523 kts 141°
2026-04-13 22:50 36.71743 61.83125 40922 ft 524 kts 141°
2026-04-13 22:50 36.66552 61.89519 40916 ft 524 kts 141°
2026-04-13 22:51 36.61369 61.95891 40926 ft 524 kts 141°
2026-04-13 22:51 36.56177 62.02261 40913 ft 525 kts 141°
2026-04-13 22:52 36.50960 62.08647 40923 ft 526 kts 141°
2026-04-13 22:52 36.45742 62.15025 40927 ft 526 kts 141°
2026-04-13 22:53 36.40522 62.21391 40929 ft 526 kts 141°
2026-04-13 22:53 36.35287 62.27761 40931 ft 528 kts 141°
2026-04-13 22:54 36.30039 62.34137 40927 ft 527 kts 141°
2026-04-13 22:54 36.24801 62.40487 40936 ft 527 kts 141°
2026-04-13 22:55 36.19532 62.46860 40935 ft 531 kts 141°
2026-04-13 22:55 36.14516 62.52918 40925 ft 530 kts 141°
2026-04-13 22:56 36.09245 62.59272 40941 ft 529 kts 141°
2026-04-13 22:56 36.03965 62.65622 40945 ft 531 kts 141°
2026-04-13 22:57 35.98678 62.71969 40948 ft 529 kts 141°
2026-04-13 22:57 35.93469 62.78211 40926 ft 529 kts 141°
2026-04-13 22:58 35.88182 62.84533 40881 ft 527 kts 141°
2026-04-13 22:58 35.85559 62.87666 40583 ft 524 kts 141°
2026-04-13 22:58 35.82952 62.90778 40127 ft 521 kts 141°
2026-04-13 22:58 35.80349 62.93880 39495 ft 521 kts 142°
2026-04-13 22:59 35.77749 62.96974 39088 ft 517 kts 142°
2026-04-13 22:59 35.75174 63.00039 38960 ft 517 kts 142°
2026-04-13 22:59 35.72568 63.03131 38945 ft 522 kts 142°
2026-04-13 23:00 35.68181 63.08329 38949 ft 531 kts 142°
2026-04-13 23:00 35.62916 63.14576 38954 ft 523 kts 142°
2026-04-13 23:01 35.57745 63.20936 38956 ft 531 kts 135°
2026-04-13 23:01 35.53208 63.28146 38950 ft 536 kts 133°
2026-04-13 23:02 35.48664 63.35413 38955 ft 535 kts 133°
2026-04-13 23:02 35.44120 63.42642 38963 ft 536 kts 133°